| time (UTC) | temp F | wind direction | speed knots | gust knots | rain 1hr in | rain 24hr in | rain mn in | humidity % | barometer mb |
| 20260906220257 | 87 | 145 | 4.3 | 10.4 | 0.00 | 0.57 | 0.00 | 29 | 1006.8 |
| 20260906215224 | 87 | 48 | 4.3 | 9.6 | 0.00 | 0.57 | 0.00 | 31 | 1007.0 |
| 20260906214233 | 85 | 64 | 2.6 | 8.7 | 0.00 | 0.57 | 0.00 | 35 | 1007.4 |
| 20260906213219 | 86 | 96 | 1.7 | 10.4 | 0.00 | 0.57 | 0.00 | 27 | 1007.4 |
| 20260906212244 | 86 | 71 | 2.6 | 8.7 | 0.00 | 0.57 | 0.00 | 27 | 1007.5 |
| 20260906211227 | 87 | 86 | 2.6 | 7.8 | 0.00 | 0.57 | 0.00 | 27 | 1007.5 |
| 20260906210235 | 88 | 86 | 0.9 | 11.3 | 0.00 | 0.57 | 0.00 | 28 | 1007.5 |
| 20260906205248 | 89 | 65 | 5.2 | 12.2 | 0.00 | 0.57 | 0.00 | 28 | 1007.6 |
| 20260906204228 | 89 | 45 | 5.2 | 11.3 | 0.00 | 0.57 | 0.00 | 28 | 1008.0 |
| 20260906203241 | 89 | 15 | 6.1 | 10.4 | 0.00 | 0.57 | 0.00 | 28 | 1008.0 |
| 20260906202244 | 88 | 19 | 7.0 | 13.9 | 0.00 | 0.57 | 0.00 | 28 | 1008.1 |
| 20260906201223 | 87 | 5 | 7.0 | 12.2 | 0.00 | 0.57 | 0.00 | 28 | 1008.2 |
| 20260906200230 | 87 | 33 | 3.5 | 10.4 | 0.00 | 0.57 | 0.00 | 28 | 1008.2 |
| 20260906195255 | 87 | 22 | 6.1 | 13.0 | 0.00 | 0.57 | 0.00 | 28 | 1008.5 |
| 20260906194223 | 87 | 26 | 6.1 | 10.4 | 0.00 | 0.57 | 0.00 | 29 | 1008.7 |
| 20260906193248 | 86 | 21 | 5.2 | 8.7 | 0.00 | 0.57 | 0.00 | 30 | 1008.7 |
| 20260906192232 | 86 | 54 | 4.3 | 9.6 | 0.00 | 0.57 | 0.00 | 32 | 1009.1 |
| 20260906191233 | 86 | 50 | 5.2 | 9.6 | 0.00 | 0.57 | 0.00 | 30 | 1009.3 |
| 20260906190219 | 85 | 34 | 4.3 | 7.8 | 0.00 | 0.57 | 0.00 | 30 | 1009.3 |
| 20260906185226 | 84 | 22 | 4.3 | 10.4 | 0.00 | 0.57 | 0.00 | 33 | 1009.5 |
| 20260906184231 | 83 | 360 | 5.2 | 8.7 | 0.00 | 0.57 | 0.00 | 34 | 1009.9 |
| 20260906183254 | 83 | 41 | 7.0 | 11.3 | 0.00 | 0.57 | 0.00 | 36 | 1009.9 |
| 20260906182235 | 82 | 20 | 3.5 | 8.7 | 0.00 | 0.57 | 0.00 | 38 | 1010.1 |
| 20260906181228 | 82 | 34 | 3.5 | 8.7 | 0.00 | 0.57 | 0.00 | 39 | 1010.6 |
| 20260906180257 | 81 | 75 | 2.6 | 7.8 | 0.00 | 0.57 | 0.00 | 39 | 1010.6 |
| 20260906175238 | 80 | 27 | 3.5 | 6.1 | 0.00 | 0.57 | 0.00 | 39 | 1010.7 |
| 20260906174229 | 80 | 26 | 1.7 | 4.3 | 0.00 | 0.57 | 0.00 | 39 | 1011.1 |
| 20260906173228 | 79 | 355 | 2.6 | 5.2 | 0.00 | 0.57 | 0.00 | 41 | 1011.1 |
| 20260906172224 | 79 | 348 | 3.5 | 6.1 | 0.00 | 0.57 | 0.00 | 44 | 1011.3 |
| 20260906171224 | 78 | 333 | 0.9 | 3.5 | 0.00 | 0.57 | 0.00 | 43 | 1011.6 |
| 20260906170228 | 77 | 333 | 0.9 | 2.6 | 0.00 | 0.57 | 0.00 | 46 | 1011.6 |
| 20260906165235 | 77 | 333 | 1.7 | 4.3 | 0.00 | 0.57 | 0.00 | 44 | 1011.7 |
| 20260906164223 | 77 | 329 | 0.9 | 3.5 | 0.00 | 0.57 | 0.00 | 46 | 1011.8 |
| 20260906163234 | 76 | 329 | 0.9 | 2.6 | 0.00 | 0.57 | 0.00 | 50 | 1011.8 |
| 20260906162224 | 74 | 329 | 0.0 | 0.9 | 0.00 | 0.57 | 0.00 | 50 | 1011.8 |
| 20260906161225 | 73 | 329 | 0.0 | 3.5 | 0.00 | 0.57 | 0.00 | 52 | 1011.8 |
| 20260906160233 | 73 | 329 | 1.7 | 2.6 | 0.00 | 0.57 | 0.00 | 57 | 1011.8 |
| 20260906155235 | 71 | 329 | 0.0 | 5.2 | 0.00 | 0.57 | 0.00 | 59 | 1011.6 |
| 20260906154220 | 70 | 246 | 0.9 | 4.3 | 0.00 | 0.57 | 0.00 | 59 | 1011.8 |
| 20260906153227 | 68 | 242 | 1.7 | 4.3 | 0.00 | 0.57 | 0.00 | 64 | 1011.8 |
| 20260906152220 | 67 | 238 | 1.7 | 4.3 | 0.00 | 0.57 | 0.00 | 64 | 1011.8 |
| 20260906151222 | 66 | 236 | 0.0 | 0.0 | 0.00 | 0.57 | 0.00 | 65 | 1011.8 |
| 20260906150230 | 65 | 236 | 0.0 | 0.0 | 0.00 | 0.57 | 0.00 | 63 | 1011.8 |
| 20260906145234 | 65 | 236 | 0.0 | 0.0 | 0.00 | 0.57 | 0.00 | 63 | 1011.8 |
| 20260906144245 | 64 | 236 | 0.0 | 0.0 | 0.00 | 0.57 | 0.00 | 70 | 1011.8 |
| 20260906143244 | 63 | 236 | 0.0 | 0.0 | 0.00 | 0.57 | 0.00 | 77 | 1011.8 |
| 20260906142224 | 62 | 236 | 0.0 | 0.0 | 0.00 | 0.57 | 0.00 | 80 | 1011.8 |
| 20260906141254 | 62 | 236 | 0.0 | 0.0 | 0.00 | 0.57 | 0.00 | 81 | 1011.9 |
| 20260906140245 | 62 | 236 | 0.0 | 3.5 | 0.00 | 0.57 | 0.00 | 82 | 1011.9 |
| 20260906135233 | 61 | 236 | 2.6 | 5.2 | 0.00 | 0.57 | 0.00 | 84 | 1011.8 |
| 20260906134235 | 59 | 162 | 0.0 | 0.9 | 0.00 | 0.57 | 0.00 | 82 | 1011.6 |
| 20260906133221 | 58 | 162 | 0.0 | 0.0 | 0.00 | 0.57 | 0.00 | 82 | 1011.6 |
| 20260906132233 | 58 | 162 | 0.0 | 0.0 | 0.00 | 0.57 | 0.00 | 82 | 1011.4 |
| 20260906131240 | 57 | 162 | 0.0 | 0.0 | 0.00 | 0.57 | 0.00 | 81 | 1011.3 |
| 20260906130247 | 57 | 162 | 0.0 | 0.0 | 0.00 | 0.57 | 0.00 | 80 | 1011.3 |
| 20260906125254 | 57 | 162 | 0.0 | 3.5 | 0.00 | 0.57 | 0.00 | 80 | 1011.2 |
| 20260906124237 | 58 | 162 | 0.0 | 1.7 | 0.00 | 0.57 | 0.00 | 78 | 1011.1 |
| 20260906123233 | 58 | 162 | 0.9 | 1.7 | 0.00 | 0.57 | 0.00 | 76 | 1011.1 |
| 20260906122226 | 59 | 162 | 0.0 | 0.0 | 0.00 | 0.57 | 0.00 | 75 | 1011.1 |
| 20260906121239 | 59 | 162 | 0.0 | 2.6 | 0.00 | 0.57 | 0.00 | 74 | 1011.2 |
| 20260906120246 | 58 | 162 | 1.7 | 3.5 | 0.00 | 0.57 | 0.00 | 75 | 1011.2 |
| 20260906115253 | 58 | 162 | 2.6 | 3.5 | 0.00 | 0.57 | 0.00 | 77 | 1011.1 |
| 20260906114228 | 58 | 162 | 1.7 | 2.6 | 0.00 | 0.57 | 0.00 | 77 | 1011.1 |
| 20260906113233 | 58 | 162 | 0.0 | 2.6 | 0.00 | 0.57 | 0.00 | 76 | 1011.1 |
| 20260906112234 | 58 | 162 | 2.6 | 3.5 | 0.00 | 0.57 | 0.00 | 77 | 1011.1 |
| 20260906111224 | 59 | 162 | 0.0 | 2.6 | 0.00 | 0.57 | 0.00 | 76 | 1010.9 |
| 20260906110230 | 59 | 162 | 0.0 | 2.6 | 0.00 | 0.57 | 0.00 | 75 | 1010.9 |
| 20260906105225 | 59 | 162 | 1.7 | 3.5 | 0.00 | 0.57 | 0.00 | 75 | 1010.7 |
| 20260906104225 | 59 | 162 | 0.0 | 0.0 | 0.00 | 0.57 | 0.00 | 75 | 1010.6 |
| 20260906103221 | 59 | 162 | 0.0 | 0.0 | 0.00 | 0.57 | 0.00 | 74 | 1010.6 |
| 20260906102226 | 59 | 162 | 0.9 | 4.3 | 0.00 | 0.57 | 0.00 | 76 | 1010.5 |
| 20260906101231 | 59 | 162 | 0.0 | 2.6 | 0.00 | 0.57 | 0.00 | 76 | 1010.6 |
| 20260906100234 | 59 | 162 | 0.0 | 0.9 | 0.00 | 0.57 | 0.00 | 76 | 1010.6 |
| 20260906095224 | 59 | 162 | 0.9 | 2.6 | 0.00 | 0.57 | 0.00 | 75 | 1010.6 |
| 20260906094236 | 60 | 162 | 1.7 | 3.5 | 0.00 | 0.57 | 0.00 | 75 | 1010.6 |
| 20260906093252 | 60 | 162 | 0.0 | 0.0 | 0.00 | 0.57 | 0.00 | 77 | 1010.6 |
| 20260906092234 | 60 | 162 | 0.0 | 0.0 | 0.00 | 0.57 | 0.00 | 76 | 1010.5 |
| 20260906091223 | 60 | 162 | 0.0 | 0.0 | 0.00 | 0.57 | 0.00 | 77 | 1010.5 |
| 20260906090229 | 60 | 162 | 1.7 | 3.5 | 0.00 | 0.57 | 0.00 | 74 | 1010.5 |
| 20260906085235 | 61 | 162 | 2.6 | 4.3 | 0.00 | 0.57 | 0.00 | 73 | 1010.3 |
| 20260906084221 | 61 | 162 | 2.6 | 4.3 | 0.00 | 0.57 | 0.00 | 73 | 1010.3 |
| 20260906083223 | 61 | 162 | 0.0 | 2.6 | 0.00 | 0.57 | 0.00 | 74 | 1010.3 |
| 20260906082228 | 60 | 162 | 1.7 | 3.5 | 0.00 | 0.57 | 0.00 | 76 | 1010.5 |
| 20260906081232 | 60 | 162 | 2.6 | 5.2 | 0.00 | 0.57 | 0.00 | 77 | 1010.5 |
| 20260906080229 | 60 | 165 | 2.6 | 3.5 | 0.00 | 0.57 | 0.00 | 79 | 1010.5 |
| 20260906075248 | 61 | 165 | 3.5 | 5.2 | 0.00 | 0.57 | 0.00 | 77 | 1010.5 |
| 20260906074234 | 60 | 164 | 4.3 | 5.2 | 0.00 | 0.57 | 0.00 | 77 | 1010.5 |
| 20260906073227 | 60 | 164 | 2.6 | 5.2 | 0.00 | 0.57 | 0.00 | 81 | 1010.5 |
| 20260906072230 | 60 | 163 | 2.6 | 5.2 | 0.00 | 0.57 | 0.00 | 82 | 1010.5 |
| 20260906071238 | 60 | 150 | 0.9 | 2.6 | 0.00 | 0.57 | 0.00 | 85 | 1010.3 |
| 20260906070227 | 59 | 150 | 1.7 | 4.3 | 0.00 | 0.57 | 0.00 | 87 | 1010.3 |
| 20260906065231 | 59 | 148 | 2.6 | 4.3 | 0.00 | 0.57 | 0.00 | 89 | 1010.2 |
| 20260906064218 | 59 | 138 | 0.9 | 3.5 | 0.00 | 0.57 | 0.00 | 89 | 1010.5 |
| 20260906063229 | 59 | 130 | 0.9 | 2.6 | 0.01 | 0.57 | 0.00 | 90 | 1010.5 |
| 20260906062238 | 59 | 128 | 0.0 | 2.6 | 0.05 | 0.57 | 0.00 | 89 | 1010.6 |
| 20260906061221 | 59 | 128 | 1.7 | 4.3 | 0.41 | 0.57 | 0.00 | 89 | 1010.6 |
| 20260906060228 | 59 | 45 | 0.0 | 1.7 | 0.57 | 0.57 | 0.00 | 89 | 1010.6 |
| 20260906055229 | 58 | 45 | 2.6 | 7.0 | 0.57 | 0.57 | 0.57 | 88 | 1010.8 |
| 20260906054238 | 58 | 45 | 4.3 | 9.6 | 0.57 | 0.57 | 0.57 | 87 | 1011.2 |
| 20260906053226 | 59 | 19 | 4.3 | 8.7 | 0.56 | 0.56 | 0.56 | 84 | 1011.2 |
| 20260906052235 | 59 | 19 | 11.3 | 24.3 | 0.51 | 0.51 | 0.51 | 78 | 1013.2 |
| 20260906051222 | 66 | 167 | 18.2 | 23.5 | 0.13 | 0.13 | 0.13 | 51 | 1010.6 |
| 20260906050230 | 73 | 85 | 0.0 | 0.0 | 0.00 | 0.00 | 0.00 | 43 | 1010.6 |
| 20260906045233 | 74 | 84 | 0.0 | 0.9 | 0.00 | 0.00 | 0.00 | 34 | 1010.7 |
| 20260906044239 | 74 | 84 | 0.0 | 2.6 | 0.00 | 0.00 | 0.00 | 33 | 1011.1 |
| 20260906043257 | 75 | 86 | 0.0 | 0.9 | 0.00 | 0.00 | 0.00 | 31 | 1011.1 |
| 20260906042228 | 76 | 87 | 0.9 | 4.3 | 0.00 | 0.00 | 0.00 | 29 | 1010.8 |
| 20260906041221 | 77 | 360 | 2.6 | 3.5 | 0.00 | 0.00 | 0.00 | 28 | 1010.7 |
| 20260906040228 | 77 | 85 | 0.9 | 8.7 | 0.00 | 0.00 | 0.00 | 27 | 1010.7 |
| 20260906035228 | 77 | 150 | 3.5 | 9.6 | 0.00 | 0.00 | 0.00 | 28 | 1010.6 |
| 20260906034233 | 75 | 151 | 5.2 | 11.3 | 0.00 | 0.00 | 0.00 | 29 | 1010.0 |
| 20260906033226 | 74 | 360 | 1.7 | 2.6 | 0.00 | 0.00 | 0.00 | 31 | 1010.0 |
| 20260906032228 | 75 | 5 | 0.9 | 2.6 | 0.00 | 0.00 | 0.00 | 28 | 1009.9 |
| 20260906031217 | 76 | 5 | 0.0 | 1.7 | 0.00 | 0.00 | 0.00 | 28 | 1009.4 |
| 20260906030245 | 77 | 5 | 0.0 | 2.6 | 0.00 | 0.00 | 0.00 | 27 | 1009.4 |
| 20260906025224 | 77 | 5 | 3.5 | 4.3 | 0.00 | 0.00 | 0.00 | 26 | 1009.3 |
| 20260906024235 | 76 | 5 | 3.5 | 7.0 | 0.00 | 0.00 | 0.00 | 27 | 1009.3 |
| 20260906023240 | 74 | 167 | 0.9 | 4.3 | 0.00 | 0.00 | 0.00 | 28 | 1009.3 |
| 20260906022235 | 74 | 167 | 0.9 | 2.6 | 0.00 | 0.00 | 0.00 | 28 | 1009.2 |
| 20260906021301 | 74 | 167 | 0.9 | 1.7 | 0.00 | 0.00 | 0.00 | 27 | 1008.8 |
| 20260906020229 | 74 | 167 | 0.0 | 2.6 | 0.00 | 0.00 | 0.00 | 28 | 1008.8 |
| 20260906015233 | 75 | 167 | 2.6 | 4.3 | 0.00 | 0.00 | 0.00 | 28 | 1008.7 |
| 20260906014238 | 76 | 167 | 2.6 | 3.5 | 0.00 | 0.00 | 0.00 | 26 | 1008.6 |
| 20260906013226 | 78 | 360 | 2.6 | 3.5 | 0.00 | 0.00 | 0.00 | 25 | 1008.6 |
| 20260906012230 | 80 | 360 | 2.6 | 6.1 | 0.00 | 0.00 | 0.00 | 23 | 1008.5 |
| 20260906011234 | 81 | 166 | 3.5 | 4.3 | 0.00 | 0.00 | 0.00 | 23 | 1008.4 |
| 20260906010258 | 83 | 166 | 2.6 | 4.3 | 0.00 | 0.00 | 0.00 | 22 | 1008.4 |
| 20260906005226 | 84 | 166 | 2.6 | 5.2 | 0.00 | 0.00 | 0.00 | 21 | 1008.6 |
| 20260906004234 | 86 | 165 | 1.7 | 4.3 | 0.00 | 0.00 | 0.00 | 20 | 1008.6 |
| 20260906003239 | 87 | 163 | 2.6 | 6.1 | 0.00 | 0.00 | 0.00 | 19 | 1008.6 |
| 20260906002230 | 87 | 145 | 0.9 | 1.7 | 0.00 | 0.00 | 0.00 | 18 | 1008.5 |
| 20260906001237 | 87 | 103 | 0.0 | 2.6 | 0.00 | 0.00 | 0.00 | 19 | 1008.4 |
| 20260906000241 | 88 | 103 | 0.0 | 6.1 | 0.00 | 0.00 | 0.00 | 17 | 1008.4 |
| 20260905235222 | 89 | 127 | 0.9 | 3.5 | 0.00 | 0.00 | 0.00 | 16 | 1008.3 |
| 20260905234258 | 90 | 120 | 2.6 | 5.2 | 0.00 | 0.00 | 0.00 | 16 | 1008.2 |
| 20260905233222 | 88 | 130 | 1.7 | 6.1 | 0.00 | 0.00 | 0.00 | 17 | 1008.2 |
| 20260905232226 | 91 | 110 | 1.7 | 6.1 | 0.00 | 0.00 | 0.00 | 15 | 1008.2 |
| 20260905231231 | 91 | 84 | 1.7 | 6.1 | 0.00 | 0.00 | 0.00 | 15 | 1008.2 |
| 20260905230235 | 92 | 45 | 3.5 | 6.1 | 0.00 | 0.00 | 0.00 | 14 | 1008.2 |
| 20260905225223 | 94 | 87 | 3.5 | 6.1 | 0.00 | 0.00 | 0.00 | 14 | 1008.1 |
| 20260905224229 | 93 | 355 | 0.9 | 3.5 | 0.00 | 0.00 | 0.00 | 14 | 1008.3 |
| 20260905223236 | 91 | 15 | 2.6 | 6.1 | 0.00 | 0.00 | 0.00 | 16 | 1008.3 |
| 20260905222241 | 91 | 5 | 4.3 | 7.8 | 0.00 | 0.00 | 0.00 | 15 | 1008.4 |
| 20260905221229 | 91 | 71 | 2.6 | 7.8 | 0.00 | 0.00 | 0.00 | 16 | 1008.4 |